FLOCK 2E'-15 (41764 NORAD) Tracking and Keplerian Element Data

This shows tracking and keplerian element data for the satellite.

Feedback or suggestion? Click here.




ElementValue
Catalog41764
NameFLOCK 2E'-15
Epoch Orbit12322
Epoch Day314.3569398
Epoch Year2018
RAAN297.393
Inclination51.6147
Eccentricity0.00048
Argument of Perigee130.8519
Mean Anonmoly229.2277
Mean Motion16.37516866
Decay Rate0.11338657
L11 41764U 98067KL 18314.35693980 .11338657 12278-4 11010-2 0 9995
L22 41764 51.6147 297.3930 0004800 130.8519 229.2277 16.37516866123220



Live tracking and technical data element details for FLOCK 2E'-15 (NORAD 41764). FLOCK 2E'-15 can be tracked NOW for your location showing map with azimuth and elevation plus other details from your city location.







IsCatalogInMostPopularTable: catalog: 41764, numindb: 627
Update: records affected: 1



GetName: 41764 FLOCK 2E'-15

Hit Count: updated at: Sun, 23 Jun 2024 00:35:08 GMT